Regional Weather Roundup
Issued by NWS

Home | Current Version | Previous Version | Graphics & Text | Print | Product List | Glossary On
Versions: 1 2 3 4 5 6 7 8 9 10 11 12 13 14 15 16 17 18 19 20 21 22 23 24 25 26 27 28 29 30 31 32 33 34 35 36 37 38 39 40 41 42 43 44 45 46 47 48 49 50
308
ASUS43 KIND 180959
RWRIN

WEATHER ROUNDUP FOR INDIANA
NATIONAL WEATHER SERVICE INDIANAPOLIS IN
500 AM EST SUN FEB 18 2018

NOTE: "FAIR" INDICATES FEW OR NO CLOUDS BELOW 12,000 FEET WITH NO
SIGNIFICANT WEATHER AND/OR OBSTRUCTIONS TO VISIBILITY.

* - STATION DOES NOT REPORT WEATHER SUCH AS PRECIPITATION OR FOG.

+ - STATION NOT QUALITY CONTROLLED BY THE NATIONAL WEATHER SERVICE.
    USE DATA WITH CAUTION...ESPECIALLY DEWPOINT AND RELATIVE
    HUMIDITY OBSERVATIONS.

INZ001>003-010>013-019-020-181100-
NORTHWEST INDIANA

CITY           SKY/WX    TMP DP  RH WIND       PRES   REMARKS
KNOX *+        CLOUDY    28  23  80 W8        30.27R WCI  20
MONTICELLO +   CLOUDY    27  24  89 NW8       30.27R WCI  19

$$

LMZ046-743>745-181100-
SOUTHERN LAKE MICHIGAN

STATION/POSITION TIME  TEMP    WIND        PRES    WAVE
                       AIR SEA DIR/SP/G            HT
                 (UTC) (F)     (DEG/KT/KT) (MB)    (FT)
BURNS HARBOR     0940   25     200/  7/  9 1025.1R
MICHIGAN CITY    0930   27     240/ 11/ 12   N/A

$$

INZ004-005-014>016-021>024-181100-
NORTH CENTRAL INDIANA

CITY           SKY/WX    TMP DP  RH WIND       PRES   REMARKS
GOSHEN         CLOUDY    29  23  78 W8        30.26R WCI  21
PERU/GRISSOM   CLOUDY    28  28 100 NW12      30.27R WCI  18
SOUTH BEND     CLOUDY    27  23  85 W6        30.25R WCI  20
WARSAW +       CLOUDY    28  27  93 W7        30.26S WCI  21

$$

INZ006>009-017-018-025>027-181100-
NORTHEAST INDIANA

CITY           SKY/WX    TMP DP  RH WIND       PRES   REMARKS
AUBURN +       CLOUDY    30  27  86 W8        30.27R WCI  23
FORT WAYNE     CLOUDY    30  25  81 W9        30.28R WCI  22
KENDALLVILLE + CLOUDY    29  25  84 NW6       30.23S WCI  23

$$

INZ028-029-035-036-043>045-051>053-181100-
WEST CENTRAL INDIANA

CITY           SKY/WX    TMP DP  RH WIND       PRES   REMARKS
LAFAYETTE      FAIR      24  22  91 CALM      30.28R
TERRE HAUTE    FAIR      24  23  96 E3        30.29R

$$

INZ030>032-037>040-046>048-054>057-064-065-181100-
CENTRAL INDIANA

CITY           SKY/WX    TMP DP  RH WIND       PRES   REMARKS
GREENWOOD *+   CLOUDY   N/A N/A N/A NW3       30.28R
INDIANAPOLIS   CLOUDY    27  23  85 NW3       30.28R
-EAGLE CREEK   CLOUDY    30  25  81 N6        30.28R WCI  24
KOKOMO +       CLOUDY    28  25  88 NW8       30.29R WCI  20
MT COMFORT *+  CLOUDY    28  28 100 NW5       30.28R WCI  23
SHELBYVILLE    FAIR      28  24  85 SW5       30.29R WCI  23

$$

INZ033-034-041-042-049-050-058-059-181100-
EAST CENTRAL INDIANA

CITY           SKY/WX    TMP DP  RH WIND       PRES   REMARKS
MUNCIE         CLOUDY    30  24  78 N12       30.26S WCI  20
RICHMOND +     CLOUDY    30  28  93 N9        30.26R WCI  22

$$

INZ060-061-067>069-081>083-085>088-181100-
SOUTHWEST INDIANA

CITY           SKY/WX    TMP DP  RH WIND       PRES   REMARKS
EVANSVILLE     FOG       28  28 100 CALM      30.32R VSB 1
HUNTINGBURG +  FOG       29  27  92 CALM      30.32R VSB 1/4

$$

INZ062-063-066-070>080-084-089>092-181100-
SOUTH CENTRAL AND SOUTHEAST INDIANA

CITY           SKY/WX    TMP DP  RH WIND       PRES   REMARKS
BLOOMINGTON    FAIR      26  25  96 CALM      30.29R FOG
MADISON *+     CLOUDY    32  30  93 CALM      30.32R
SEYMOUR +      MOCLDY    34  28  80 CALM      30.31R

$$





USA.gov is the U.S. government's official web portal to all federal, state and local government web resources and services.